Regional Weather Roundup
Issued by NWS

Home | Current Version | Previous Version | Text Only | Print | Product List | Glossary Off
Versions: 1 2 3 4 5 6 7 8 9 10 11 12 13 14 15 16 17 18 19 20 21 22 23 24 25 26 27 28 29 30 31 32 33 34 35 36 37 38 39 40 41 42 43 44 45 46 47 48 49 50

000
ASUS45 KCYS 060110
RWRWY

WYOMING REGIONAL WEATHER ROUNDUP
NATIONAL WEATHER SERVICE CHEYENNE WY
700 PM MDT SUN JUL 05 2015

NOTE:  "FAIR" INDICATES FEW OR NO CLOUDS BELOW 12,000 FEET
WITH NO SIGNIFICANT WEATHER AND/OR OBSTRUCTIONS TO VISIBILITY.

WYZ001-060200-
YELLOWSTONE NATIONAL PARK

CITY           SKY/WX    TMP DP  RH WIND       PRES   REMARKS
LK YELLOWSTONE   N/A     63  48  58 CALM      30.23F
W YELLOWSTONE  NOT AVBL

$$
WYZ002>013-054>058-071-098>099-060200-
NORTHERN WYOMING

CITY           SKY/WX    TMP DP  RH WIND       PRES   REMARKS
JACKSON        CLOUDY    66  54  63 N7        30.14S
CODY           CLOUDY    55  52  88 N14       30.17R
GREYBULL       PTSUNNY   62  56  80 NW6       30.08S
WORLAND        CLOUDY    60  58  92 N5        30.09S FOG
SHERIDAN       CLOUDY    57  54  89 NW9       30.15R FOG
BUFFALO        LGT RAIN  54  53  97 N12       30.16R FOG
GILLETTE       CLOUDY    57  55  93 N14       30.12R FOG
HULETT         LGT RAIN  59  55  88 N14       30.12R
NEWCASTLE      FAIR      63  59  88 N16       30.02S

$$
WYZ014>020-022>026-101>103-060200-
CENTRAL WYOMING

CITY           SKY/WX    TMP DP  RH WIND       PRES   REMARKS
BIG PINEY      FAIR      66  50  56 W5        30.19F
PINEDALE       FAIR      66  45  45 NW6       30.19S
DUBOIS         MOCLDY    61  46  59 CALM      30.20S
LANDER         LGT RAIN  61  58  90 W6        30.14R FOG
RIVERTON       CLOUDY    62  58  86 SE8       30.13R
CASPER         LGT RAIN  60  56  86 NE14      30.14R
DOUGLAS        CLOUDY    65  56  72 N14       30.11R

$$
WYZ021-027>030-104>119-060200-
SOUTHERN WYOMING

CITY           SKY/WX    TMP DP  RH WIND       PRES   REMARKS
EVANSTON       FAIR      70  57  63 N12       30.19S
KEMMERER       FAIR      70  48  46 NW6       30.20S
FORT BRIDGER   PTCLDY    70  61  73 N3        30.22S
ROCK SPRINGS   FAIR      65  57  75 VRB5      30.18S
DIXON          LGT RAIN  60  56  87 CALM      30.21S
RAWLINS        PTSUNNY   59  56  89 CALM      30.18F
SARATOGA       LGT RAIN  55  55 100 N3        30.22S
LARAMIE        LGT RAIN  60  55  83 N8        30.19F
CHEYENNE       LGT RAIN  65  57  75 NW12      30.08F
TORRINGTON     TSTM      65  64  97 W18       30.02R FOG
PINE BLUFFS    LGT RAIN  64  61  88 N22G32    30.03R

$$


USA.gov is the U.S. government's official web portal to all federal, state and local government web resources and services.